TimeEST,TemperatureF,Dew PointF,Humidity,Sea Level PressureIn,VisibilityMPH,Wind Direction,Wind SpeedMPH,Gust SpeedMPH,PrecipitationIn,Events,Conditions,WindDirDegrees,DateUTC
12:53 AM,21.9,12.9,68,30.40,10.0,West,8.1,-,N/A,,Clear,280,2013-01-18 05:53:00
1:53 AM,19.9,12.9,74,30.42,10.0,WSW,5.8,-,N/A,,Clear,240,2013-01-18 06:53:00
2:53 AM,21.0,14.0,74,30.45,10.0,WSW,6.9,-,N/A,,Scattered Clouds,240,2013-01-18 07:53:00
3:53 AM,21.0,14.0,74,30.45,10.0,WSW,9.2,-,N/A,,Clear,240,2013-01-18 08:53:00
4:53 AM,21.0,14.0,74,30.45,10.0,WSW,6.9,-,N/A,,Clear,240,2013-01-18 09:53:00
5:53 AM,19.9,14.0,78,30.46,10.0,SW,6.9,-,N/A,,Clear,230,2013-01-18 10:53:00
6:53 AM,21.0,14.0,74,30.47,10.0,SW,5.8,-,N/A,,Clear,220,2013-01-18 11:53:00
7:53 AM,19.9,14.0,78,30.48,10.0,SW,5.8,-,N/A,,Clear,220,2013-01-18 12:53:00
8:53 AM,23.0,15.1,72,30.48,10.0,SW,6.9,-,N/A,,Clear,220,2013-01-18 13:53:00
9:53 AM,26.1,16.0,66,30.50,10.0,SW,6.9,-,N/A,,Partly Cloudy,230,2013-01-18 14:53:00
10:53 AM,28.9,16.0,58,30.48,10.0,SSW,9.2,-,N/A,,Partly Cloudy,210,2013-01-18 15:53:00
11:53 AM,30.0,16.0,56,30.45,10.0,SW,11.5,-,N/A,,Overcast,220,2013-01-18 16:53:00
12:53 PM,32.0,17.1,54,30.40,10.0,SSW,15.0,-,N/A,,Scattered Clouds,200,2013-01-18 17:53:00
1:53 PM,34.0,19.0,54,30.36,10.0,SSW,16.1,24.2,N/A,,Clear,210,2013-01-18 18:53:00
2:53 PM,35.1,19.0,52,30.33,10.0,SSW,18.4,28.8,N/A,,Clear,200,2013-01-18 19:53:00
3:53 PM,36.0,17.1,46,30.29,10.0,South,17.3,28.8,N/A,,Clear,190,2013-01-18 20:53:00
4:53 PM,35.1,17.1,48,30.27,10.0,South,16.1,24.2,N/A,,Clear,190,2013-01-18 21:53:00
5:53 PM,35.1,18.0,50,30.25,10.0,South,19.6,27.6,N/A,,Clear,190,2013-01-18 22:53:00
6:53 PM,35.1,18.0,50,30.23,10.0,South,21.9,31.1,N/A,,Clear,190,2013-01-18 23:53:00
7:53 PM,34.0,19.0,54,30.21,10.0,South,19.6,31.1,N/A,,Clear,180,2013-01-19 00:53:00
8:53 PM,35.1,19.9,54,30.18,10.0,South,21.9,27.6,N/A,,Clear,190,2013-01-19 01:53:00
9:53 PM,36.0,21.0,55,30.15,10.0,SSW,21.9,31.1,N/A,,Clear,200,2013-01-19 02:53:00
10:53 PM,37.0,21.9,54,30.12,10.0,SSW,20.7,31.1,N/A,,Clear,200,2013-01-19 03:53:00
11:53 PM,37.0,21.9,54,30.10,10.0,SSW,19.6,29.9,N/A,,Clear,210,2013-01-19 04:53:00